GEFSNGP_prec_meanprecacc_060.txt.gz
Total_Precipitation_Accumulation
0.18 0.19 0.25 0.32 0.34 0.43 0.56 0.74 0.97 0.87 0.67 0.55 0.52 0.48 0.50 0.55 0.49 0.43 0.38 0.37 0.35 0.32 0.32 0.34 0.37 0.45 0.52 0.65 0.79 0.89 0.92 0.85 0.78 0.74 0.65 0.54 0.48 0.37 0.32 0.29 0.28 0.31 0.41 0.51
0.07 0.10 0.16 0.28 0.41 0.54 0.60 0.67 0.69 0.60 0.56 0.42 0.36 0.32 0.32 0.37 0.37 0.36 0.31 0.26 0.24 0.24 0.21 0.23 0.29 0.35 0.36 0.48 0.62 0.72 0.77 0.77 0.76 0.73 0.57 0.49 0.42 0.33 0.27 0.25 0.24 0.27 0.32 0.42
0.07 0.09 0.17 0.40 0.53 0.60 0.59 0.54 0.45 0.42 0.37 0.26 0.24 0.17 0.16 0.21 0.25 0.30 0.28 0.23 0.21 0.20 0.21 0.23 0.30 0.31 0.32 0.41 0.52 0.56 0.60 0.63 0.64 0.59 0.46 0.41 0.32 0.27 0.27 0.25 0.26 0.29 0.32 0.41
0.12 0.13 0.34 0.61 0.51 0.45 0.48 0.37 0.22 0.20 0.20 0.19 0.15 0.11 0.08 0.08 0.11 0.13 0.16 0.16 0.21 0.18 0.17 0.19 0.24 0.29 0.37 0.40 0.41 0.41 0.45 0.48 0.47 0.46 0.41 0.34 0.26 0.25 0.26 0.26 0.28 0.29 0.33 0.36
0.22 0.23 0.42 0.57 0.38 0.34 0.39 0.33 0.16 0.11 0.11 0.09 0.07 0.05 0.03 0.02 0.05 0.06 0.06 0.07 0.10 0.09 0.09 0.10 0.10 0.11 0.14 0.17 0.19 0.23 0.30 0.36 0.39 0.39 0.36 0.30 0.25 0.31 0.37 0.34 0.32 0.31 0.29 0.31
0.31 0.37 0.50 0.39 0.15 0.15 0.27 0.38 0.13 0.06 0.05 0.04 0.03 0.04 0.02 0.02 0.04 0.03 0.02 0.02 0.03 0.03 0.03 0.03 0.02 0.02 0.03 0.05 0.09 0.13 0.19 0.24 0.28 0.30 0.34 0.37 0.45 0.52 0.53 0.49 0.40 0.36 0.33 0.30
0.39 0.56 0.57 0.33 0.13 0.15 0.28 0.40 0.18 0.05 0.02 0.01 0.01 0.01 0.00 0.02 0.03 0.02 0.01 0.00 0.00 0.01 0.01 0.00 0.00 0.00 0.00 0.01 0.02 0.02 0.04 0.10 0.18 0.29 0.34 0.44 0.55 0.58 0.56 0.50 0.41 0.36 0.34 0.31
0.50 0.66 0.74 0.38 0.19 0.21 0.19 0.13 0.10 0.04 0.01 0.01 0.00 0.00 0.00 0.01 0.01 0.01 0.01 0.00 0.00 0.00 0.00 0.00 0.00 0.00 0.00 0.00 0.00 0.01 0.03 0.07 0.13 0.20 0.29 0.42 0.51 0.50 0.49 0.47 0.44 0.40 0.40 0.37
0.50 0.56 0.47 0.28 0.16 0.11 0.08 0.08 0.03 0.01 0.01 0.00 0.00 0.00 0.00 0.01 0.01 0.01 0.01 0.00 0.00 0.00 0.00 0.00 0.00 0.00 0.00 0.00 0.00 0.00 0.01 0.02 0.06 0.11 0.22 0.36 0.39 0.39 0.42 0.44 0.43 0.42 0.40 0.38
0.20 0.15 0.14 0.11 0.08 0.04 0.03 0.04 0.01 0.00 0.00 0.00 0.00 0.00 0.00 0.00 0.01 0.00 0.00 0.00 0.00 0.00 0.00 0.00 0.00 0.00 0.00 0.00 0.00 0.00 0.00 0.00 0.01 0.02 0.05 0.10 0.15 0.20 0.26 0.31 0.32 0.32 0.34 0.38
0.20 0.10 0.05 0.04 0.04 0.02 0.02 0.02 0.01 0.00 0.00 0.00 0.00 0.00 0.00 0.00 0.00 0.00 0.00 0.00 0.00 0.00 0.00 0.00 0.00 0.00 0.00 0.00 0.00 0.00 0.00 0.00 0.01 0.02 0.03 0.04 0.06 0.09 0.12 0.15 0.19 0.24 0.30 0.33
0.20 0.12 0.06 0.04 0.03 0.02 0.02 0.01 0.01 0.00 0.00 0.00 0.00 0.00 0.00 0.00 0.00 0.00 0.00 0.00 0.00 0.00 0.00 0.00 0.00 0.00 0.00 0.00 0.00 0.00 0.00 0.00 0.00 0.01 0.01 0.01 0.02 0.03 0.04 0.06 0.09 0.12 0.15 0.18
0.08 0.07 0.05 0.05 0.05 0.03 0.02 0.01 0.00 0.01 0.00 0.00 0.00 0.00 0.00 0.00 0.00 0.00 0.00 0.00 0.00 0.00 0.00 0.00 0.00 0.00 0.00 0.00 0.00 0.00 0.00 0.00 0.00 0.01 0.01 0.02 0.03 0.05 0.04 0.03 0.02 0.03 0.05 0.09
0.04 0.05 0.06 0.04 0.03 0.02 0.01 0.01 0.00 0.00 0.00 0.00 0.00 0.00 0.00 0.00 0.00 0.00 0.00 0.00 0.00 0.00 0.00 0.00 0.00 0.00 0.00 0.00 0.00 0.00 0.00 0.00 0.01 0.05 0.07 0.04 0.04 0.08 0.11 0.12 0.09 0.04 0.02 0.04
0.03 0.04 0.05 0.03 0.01 0.01 0.00 0.00 0.00 0.00 0.00 0.00 0.00 0.00 0.00 0.00 0.00 0.00 0.00 0.00 0.00 0.00 0.00 0.00 0.00 0.00 0.00 0.00 0.00 0.00 0.00 0.01 0.02 0.06 0.07 0.08 0.11 0.13 0.12 0.12 0.11 0.07 0.04 0.02
0.02 0.02 0.03 0.02 0.01 0.00 0.00 0.00 0.00 0.00 0.00 0.00 0.00 0.00 0.00 0.00 0.00 0.00 0.00 0.00 0.00 0.00 0.00 0.00 0.00 0.00 0.00 0.00 0.00 0.00 0.00 0.00 0.01 0.03 0.05 0.06 0.08 0.09 0.08 0.07 0.07 0.05 0.04 0.03
0.01 0.00 0.01 0.01 0.00 0.00 0.00 0.00 0.00 0.00 0.00 0.00 0.00 0.00 0.00 0.00 0.00 0.00 0.00 0.00 0.00 0.00 0.00 0.00 0.00 0.00 0.00 0.00 0.00 0.00 0.00 0.00 0.00 0.01 0.03 0.03 0.03 0.03 0.04 0.04 0.03 0.02 0.02 0.01
0.00 0.00 0.00 0.01 0.00 0.00 0.00 0.00 0.00 0.00 0.00 0.00 0.00 0.00 0.00 0.00 0.00 0.00 0.00 0.00 0.00 0.00 0.00 0.00 0.00 0.00 0.00 0.00 0.00 0.00 0.00 0.00 0.01 0.02 0.04 0.03 0.02 0.02 0.03 0.04 0.03 0.02 0.02 0.01
0.00 0.00 0.00 0.00 0.00 0.00 0.00 0.00 0.00 0.00 0.00 0.00 0.00 0.00 0.00 0.00 0.00 0.00 0.00 0.00 0.00 0.00 0.00 0.00 0.00 0.00 0.00 0.00 0.00 0.00 0.00 0.00 0.01 0.02 0.03 0.01 0.01 0.03 0.03 0.03 0.03 0.02 0.02 0.02
0.00 0.00 0.00 0.00 0.00 0.00 0.00 0.00 0.00 0.00 0.00 0.00 0.00 0.00 0.00 0.00 0.00 0.00 0.00 0.00 0.00 0.00 0.00 0.00 0.00 0.00 0.00 0.00 0.00 0.00 0.00 0.00 0.01 0.02 0.02 0.02 0.03 0.03 0.03 0.02 0.02 0.02 0.02 0.03
0.00 0.00 0.00 0.00 0.00 0.00 0.00 0.00 0.00 0.00 0.00 0.00 0.00 0.00 0.00 0.00 0.00 0.00 0.00 0.00 0.00 0.00 0.00 0.00 0.00 0.00 0.00 0.00 0.00 0.00 0.00 0.00 0.01 0.01 0.01 0.02 0.02 0.03 0.04 0.02 0.02 0.02 0.02 0.02
0.00 0.00 0.00 0.00 0.00 0.00 0.00 0.00 0.00 0.00 0.00 0.00 0.00 0.00 0.00 0.00 0.00 0.00 0.00 0.00 0.00 0.00 0.00 0.00 0.00 0.00 0.00 0.00 0.00 0.00 0.00 0.00 0.01 0.01 0.01 0.01 0.02 0.04 0.04 0.04 0.03 0.02 0.03 0.03
0.00 0.00 0.00 0.00 0.00 0.00 0.00 0.00 0.00 0.00 0.00 0.00 0.00 0.00 0.00 0.00 0.00 0.00 0.00 0.00 0.00 0.00 0.00 0.00 0.00 0.00 0.00 0.00 0.00 0.00 0.00 0.00 0.00 0.01 0.01 0.01 0.02 0.03 0.04 0.03 0.03 0.03 0.03 0.04
0.00 0.00 0.00 0.00 0.00 0.00 0.00 0.00 0.00 0.00 0.00 0.00 0.00 0.00 0.00 0.00 0.00 0.00 0.00 0.00 0.00 0.00 0.00 0.00 0.00 0.00 0.00 0.00 0.00 0.00 0.00 0.00 0.00 0.00 0.01 0.01 0.01 0.02 0.02 0.01 0.02 0.02 0.02 0.03
0.01 0.00 0.00 0.00 0.00 0.00 0.00 0.00 0.00 0.00 0.00 0.00 0.00 0.00 0.00 0.00 0.00 0.00 0.00 0.00 0.00 0.00 0.00 0.00 0.00 0.00 0.00 0.00 0.00 0.00 0.00 0.00 0.00 0.00 0.00 0.01 0.01 0.01 0.01 0.01 0.01 0.01 0.02 0.02
0.01 0.00 0.00 0.00 0.00 0.00 0.00 0.00 0.00 0.00 0.00 0.00 0.00 0.00 0.00 0.00 0.00 0.00 0.00 0.00 0.00 0.00 0.00 0.00 0.00 0.00 0.00 0.00 0.00 0.00 0.00 0.00 0.00 0.00 0.00 0.01 0.01 0.01 0.01 0.01 0.01 0.01 0.01 0.01
0.01 0.00 0.00 0.00 0.00 0.00 0.00 0.00 0.00 0.00 0.00 0.00 0.00 0.00 0.00 0.00 0.00 0.00 0.00 0.00 0.00 0.00 0.00 0.00 0.00 0.00 0.00 0.00 0.00 0.00 0.00 0.00 0.00 0.00 0.00 0.00 0.01 0.01 0.01 0.01 0.01 0.00 0.00 0.00

GEFSNGP_prec_meanprecacc_066.txt.gz
Total_Precipitation_Accumulation
0.18 0.19 0.25 0.32 0.34 0.43 0.56 0.74 0.97 0.87 0.67 0.55 0.52 0.48 0.50 0.55 0.49 0.43 0.39 0.37 0.35 0.32 0.32 0.34 0.37 0.45 0.52 0.65 0.80 0.91 0.96 0.90 0.83 0.78 0.67 0.56 0.50 0.39 0.35 0.31 0.31 0.35 0.45 0.56
0.07 0.10 0.16 0.28 0.41 0.54 0.60 0.67 0.69 0.60 0.56 0.42 0.36 0.32 0.32 0.37 0.37 0.36 0.31 0.27 0.24 0.24 0.21 0.23 0.29 0.36 0.36 0.48 0.62 0.73 0.78 0.79 0.79 0.75 0.60 0.51 0.43 0.34 0.28 0.26 0.26 0.29 0.34 0.44
0.07 0.09 0.17 0.40 0.53 0.60 0.59 0.54 0.45 0.42 0.37 0.26 0.24 0.17 0.16 0.21 0.25 0.30 0.28 0.23 0.21 0.20 0.21 0.23 0.30 0.31 0.32 0.41 0.52 0.56 0.60 0.63 0.65 0.60 0.47 0.42 0.33 0.28 0.28 0.26 0.27 0.29 0.34 0.43
0.12 0.13 0.34 0.61 0.51 0.45 0.48 0.37 0.22 0.20 0.20 0.19 0.15 0.11 0.08 0.08 0.11 0.13 0.16 0.16 0.21 0.18 0.17 0.19 0.24 0.29 0.37 0.40 0.41 0.41 0.45 0.48 0.47 0.46 0.41 0.34 0.26 0.25 0.26 0.26 0.28 0.30 0.34 0.38
0.22 0.23 0.42 0.57 0.38 0.34 0.39 0.33 0.16 0.11 0.11 0.09 0.07 0.05 0.03 0.02 0.05 0.06 0.06 0.07 0.10 0.09 0.09 0.10 0.10 0.11 0.14 0.17 0.19 0.23 0.30 0.36 0.40 0.39 0.36 0.30 0.25 0.31 0.37 0.34 0.32 0.31 0.31 0.33
0.31 0.37 0.50 0.39 0.15 0.15 0.27 0.38 0.13 0.06 0.05 0.04 0.03 0.04 0.02 0.02 0.04 0.03 0.02 0.02 0.03 0.03 0.03 0.03 0.02 0.02 0.03 0.05 0.09 0.13 0.19 0.24 0.28 0.31 0.34 0.37 0.45 0.52 0.53 0.49 0.40 0.36 0.34 0.32
0.39 0.56 0.57 0.33 0.13 0.15 0.28 0.40 0.18 0.05 0.02 0.01 0.01 0.01 0.00 0.02 0.03 0.02 0.01 0.00 0.00 0.01 0.01 0.00 0.00 0.00 0.00 0.01 0.02 0.02 0.04 0.10 0.18 0.29 0.35 0.44 0.56 0.58 0.56 0.51 0.41 0.36 0.34 0.32
0.50 0.66 0.74 0.38 0.19 0.21 0.19 0.13 0.10 0.04 0.01 0.01 0.00 0.00 0.00 0.01 0.01 0.01 0.01 0.00 0.00 0.00 0.00 0.00 0.00 0.00 0.00 0.00 0.00 0.01 0.03 0.07 0.13 0.20 0.29 0.42 0.51 0.50 0.49 0.47 0.44 0.40 0.40 0.37
0.50 0.56 0.47 0.28 0.16 0.11 0.08 0.08 0.03 0.01 0.01 0.00 0.00 0.00 0.00 0.01 0.01 0.01 0.01 0.00 0.00 0.00 0.00 0.00 0.00 0.00 0.00 0.00 0.00 0.00 0.01 0.02 0.06 0.11 0.22 0.36 0.39 0.39 0.42 0.44 0.43 0.42 0.40 0.38
0.20 0.15 0.14 0.11 0.08 0.04 0.03 0.04 0.01 0.00 0.00 0.00 0.00 0.00 0.00 0.00 0.01 0.00 0.00 0.00 0.00 0.00 0.00 0.00 0.00 0.00 0.00 0.00 0.00 0.00 0.00 0.00 0.01 0.02 0.05 0.10 0.15 0.20 0.26 0.31 0.32 0.32 0.34 0.38
0.20 0.10 0.05 0.04 0.04 0.02 0.02 0.02 0.01 0.00 0.00 0.00 0.00 0.00 0.00 0.00 0.00 0.00 0.00 0.00 0.00 0.00 0.00 0.00 0.00 0.00 0.00 0.00 0.00 0.00 0.00 0.00 0.01 0.02 0.03 0.04 0.06 0.09 0.12 0.15 0.19 0.25 0.30 0.33
0.20 0.12 0.06 0.04 0.03 0.02 0.02 0.01 0.01 0.00 0.00 0.00 0.00 0.00 0.00 0.00 0.00 0.00 0.00 0.00 0.00 0.00 0.00 0.00 0.00 0.00 0.00 0.00 0.00 0.00 0.00 0.00 0.00 0.01 0.01 0.01 0.02 0.03 0.04 0.06 0.09 0.12 0.15 0.18
0.08 0.07 0.05 0.05 0.05 0.03 0.02 0.01 0.00 0.01 0.00 0.00 0.00 0.00 0.00 0.00 0.00 0.00 0.00 0.00 0.00 0.00 0.00 0.00 0.00 0.00 0.00 0.00 0.00 0.00 0.00 0.00 0.00 0.01 0.01 0.02 0.03 0.05 0.04 0.03 0.02 0.03 0.05 0.09
0.04 0.05 0.06 0.04 0.03 0.02 0.01 0.01 0.00 0.00 0.00 0.00 0.00 0.00 0.00 0.00 0.00 0.00 0.00 0.00 0.00 0.00 0.00 0.00 0.00 0.00 0.00 0.00 0.00 0.00 0.00 0.00 0.01 0.05 0.07 0.04 0.04 0.08 0.11 0.12 0.09 0.04 0.02 0.04
0.03 0.04 0.05 0.03 0.01 0.01 0.00 0.00 0.00 0.00 0.00 0.00 0.00 0.00 0.00 0.00 0.00 0.00 0.00 0.00 0.00 0.00 0.00 0.00 0.00 0.00 0.00 0.00 0.00 0.00 0.00 0.01 0.02 0.06 0.07 0.08 0.11 0.13 0.12 0.12 0.11 0.07 0.04 0.02
0.02 0.02 0.03 0.02 0.01 0.00 0.00 0.00 0.00 0.00 0.00 0.00 0.00 0.00 0.00 0.00 0.00 0.00 0.00 0.00 0.00 0.00 0.00 0.00 0.00 0.00 0.00 0.00 0.00 0.00 0.00 0.00 0.01 0.03 0.05 0.06 0.08 0.10 0.08 0.07 0.07 0.05 0.04 0.03
0.01 0.00 0.01 0.01 0.00 0.00 0.00 0.00 0.00 0.00 0.00 0.00 0.00 0.00 0.00 0.00 0.00 0.00 0.00 0.00 0.00 0.00 0.00 0.00 0.00 0.00 0.00 0.00 0.00 0.00 0.00 0.00 0.00 0.01 0.03 0.03 0.03 0.03 0.04 0.04 0.03 0.02 0.02 0.01
0.00 0.00 0.00 0.01 0.00 0.00 0.00 0.00 0.00 0.00 0.00 0.00 0.00 0.00 0.00 0.00 0.00 0.00 0.00 0.00 0.00 0.00 0.00 0.00 0.00 0.00 0.00 0.00 0.00 0.00 0.00 0.00 0.01 0.02 0.04 0.03 0.02 0.02 0.03 0.04 0.03 0.02 0.02 0.01
0.00 0.00 0.00 0.00 0.00 0.00 0.00 0.00 0.00 0.00 0.00 0.00 0.00 0.00 0.00 0.00 0.00 0.00 0.00 0.00 0.00 0.00 0.00 0.00 0.00 0.00 0.00 0.00 0.00 0.00 0.00 0.00 0.01 0.02 0.03 0.01 0.01 0.03 0.03 0.03 0.03 0.02 0.02 0.02
0.00 0.00 0.00 0.00 0.00 0.00 0.00 0.00 0.00 0.00 0.00 0.00 0.00 0.00 0.00 0.00 0.00 0.00 0.00 0.00 0.00 0.00 0.00 0.00 0.00 0.00 0.00 0.00 0.00 0.00 0.00 0.00 0.01 0.02 0.02 0.02 0.03 0.03 0.03 0.02 0.02 0.02 0.02 0.03
0.00 0.00 0.00 0.00 0.00 0.00 0.00 0.00 0.00 0.00 0.00 0.00 0.00 0.00 0.00 0.00 0.00 0.00 0.00 0.00 0.00 0.00 0.00 0.00 0.00 0.00 0.00 0.00 0.00 0.00 0.00 0.00 0.01 0.01 0.01 0.02 0.02 0.03 0.04 0.02 0.02 0.02 0.02 0.02
0.00 0.00 0.00 0.00 0.00 0.00 0.00 0.00 0.00 0.00 0.00 0.00 0.00 0.00 0.00 0.00 0.00 0.00 0.00 0.00 0.00 0.00 0.00 0.00 0.00 0.00 0.00 0.00 0.00 0.00 0.00 0.00 0.01 0.01 0.01 0.01 0.02 0.04 0.04 0.04 0.03 0.02 0.03 0.03
0.00 0.00 0.00 0.00 0.00 0.00 0.00 0.00 0.00 0.00 0.00 0.00 0.00 0.00 0.00 0.00 0.00 0.00 0.00 0.00 0.00 0.00 0.00 0.00 0.00 0.00 0.00 0.00 0.00 0.00 0.00 0.00 0.00 0.01 0.01 0.01 0.02 0.03 0.04 0.03 0.03 0.03 0.03 0.04
0.00 0.00 0.00 0.00 0.00 0.00 0.00 0.00 0.00 0.00 0.00 0.00 0.00 0.00 0.00 0.00 0.00 0.00 0.00 0.00 0.00 0.00 0.00 0.00 0.00 0.00 0.00 0.00 0.00 0.00 0.00 0.00 0.00 0.00 0.01 0.01 0.01 0.02 0.02 0.01 0.02 0.02 0.02 0.03
0.01 0.00 0.00 0.00 0.00 0.00 0.00 0.00 0.00 0.00 0.00 0.00 0.00 0.00 0.00 0.00 0.00 0.00 0.00 0.00 0.00 0.00 0.00 0.00 0.00 0.00 0.00 0.00 0.00 0.00 0.00 0.00 0.00 0.00 0.00 0.01 0.01 0.01 0.01 0.01 0.01 0.01 0.02 0.02
0.01 0.01 0.00 0.00 0.00 0.00 0.00 0.00 0.00 0.00 0.00 0.00 0.00 0.00 0.00 0.00 0.00 0.00 0.00 0.00 0.00 0.00 0.00 0.00 0.00 0.00 0.00 0.00 0.00 0.00 0.00 0.00 0.00 0.00 0.00 0.01 0.01 0.01 0.01 0.01 0.01 0.01 0.01 0.01
0.02 0.01 0.01 0.01 0.01 0.00 0.00 0.00 0.00 0.00 0.00 0.00 0.00 0.00 0.00 0.00 0.00 0.00 0.00 0.00 0.00 0.00 0.00 0.00 0.00 0.00 0.00 0.00 0.00 0.00 0.00 0.00 0.00 0.00 0.00 0.00 0.01 0.01 0.01 0.01 0.01 0.00 0.00 0.00

GEFSNGP_prec_meanprecacc_072.txt.gz
Total_Precipitation_Accumulation
0.18 0.19 0.25 0.32 0.34 0.43 0.56 0.74 0.97 0.87 0.67 0.55 0.52 0.48 0.50 0.55 0.49 0.43 0.39 0.37 0.35 0.32 0.32 0.34 0.37 0.45 0.52 0.65 0.81 0.93 0.97 0.92 0.85 0.79 0.68 0.59 0.52 0.43 0.40 0.37 0.36 0.41 0.52 0.64
0.07 0.10 0.16 0.28 0.41 0.54 0.60 0.67 0.69 0.60 0.56 0.42 0.36 0.32 0.32 0.37 0.37 0.36 0.31 0.27 0.24 0.24 0.21 0.23 0.29 0.36 0.36 0.48 0.63 0.74 0.79 0.80 0.81 0.77 0.61 0.53 0.45 0.37 0.32 0.31 0.30 0.33 0.40 0.50
0.07 0.09 0.17 0.40 0.53 0.60 0.59 0.54 0.45 0.42 0.37 0.26 0.24 0.17 0.16 0.21 0.25 0.30 0.28 0.23 0.21 0.20 0.21 0.23 0.30 0.31 0.32 0.41 0.52 0.57 0.61 0.64 0.66 0.61 0.48 0.43 0.33 0.29 0.29 0.29 0.30 0.32 0.36 0.46
0.12 0.13 0.34 0.61 0.51 0.45 0.48 0.37 0.22 0.20 0.20 0.19 0.15 0.11 0.08 0.08 0.11 0.13 0.16 0.16 0.21 0.18 0.17 0.19 0.24 0.29 0.37 0.40 0.41 0.41 0.45 0.49 0.47 0.47 0.42 0.35 0.27 0.26 0.27 0.28 0.31 0.33 0.36 0.40
0.22 0.23 0.42 0.57 0.38 0.34 0.39 0.33 0.16 0.11 0.11 0.09 0.07 0.05 0.03 0.02 0.05 0.06 0.06 0.07 0.10 0.09 0.09 0.10 0.10 0.11 0.14 0.17 0.19 0.23 0.30 0.36 0.40 0.40 0.36 0.31 0.26 0.32 0.38 0.36 0.34 0.34 0.33 0.35
0.31 0.37 0.50 0.39 0.15 0.15 0.27 0.38 0.13 0.06 0.05 0.04 0.03 0.04 0.02 0.02 0.04 0.03 0.02 0.02 0.03 0.03 0.03 0.03 0.02 0.02 0.03 0.05 0.09 0.13 0.19 0.24 0.28 0.31 0.34 0.38 0.46 0.53 0.54 0.50 0.41 0.38 0.36 0.34
0.39 0.56 0.57 0.33 0.13 0.15 0.28 0.40 0.18 0.05 0.02 0.01 0.01 0.01 0.00 0.02 0.03 0.02 0.01 0.00 0.00 0.01 0.01 0.00 0.00 0.00 0.00 0.01 0.02 0.02 0.04 0.10 0.18 0.29 0.35 0.44 0.56 0.58 0.57 0.51 0.42 0.37 0.35 0.33
0.50 0.66 0.74 0.38 0.19 0.21 0.19 0.13 0.10 0.04 0.01 0.01 0.00 0.00 0.00 0.01 0.01 0.01 0.01 0.00 0.00 0.00 0.00 0.00 0.00 0.00 0.00 0.00 0.00 0.01 0.03 0.07 0.13 0.20 0.29 0.42 0.51 0.50 0.49 0.48 0.45 0.41 0.40 0.38
0.50 0.56 0.47 0.28 0.16 0.11 0.08 0.08 0.03 0.01 0.01 0.00 0.00 0.00 0.00 0.01 0.01 0.01 0.01 0.00 0.00 0.00 0.00 0.00 0.00 0.00 0.00 0.00 0.00 0.00 0.01 0.02 0.06 0.11 0.22 0.36 0.39 0.39 0.42 0.45 0.44 0.43 0.41 0.38
0.20 0.15 0.14 0.11 0.08 0.04 0.03 0.04 0.01 0.00 0.00 0.00 0.00 0.00 0.00 0.00 0.01 0.00 0.00 0.00 0.00 0.00 0.00 0.00 0.00 0.00 0.00 0.00 0.00 0.00 0.00 0.00 0.01 0.02 0.05 0.10 0.15 0.20 0.26 0.31 0.32 0.32 0.35 0.39
0.20 0.10 0.05 0.04 0.04 0.02 0.02 0.02 0.01 0.00 0.00 0.00 0.00 0.00 0.00 0.00 0.00 0.00 0.00 0.00 0.00 0.00 0.00 0.00 0.00 0.00 0.00 0.00 0.00 0.00 0.00 0.00 0.01 0.02 0.03 0.04 0.06 0.09 0.12 0.15 0.19 0.25 0.30 0.34
0.20 0.12 0.06 0.04 0.03 0.02 0.02 0.01 0.01 0.00 0.00 0.00 0.00 0.00 0.00 0.00 0.00 0.00 0.00 0.00 0.00 0.00 0.00 0.00 0.00 0.00 0.00 0.00 0.00 0.00 0.00 0.00 0.00 0.01 0.01 0.01 0.02 0.03 0.04 0.06 0.09 0.12 0.15 0.18
0.08 0.07 0.05 0.05 0.05 0.03 0.02 0.01 0.00 0.01 0.00 0.00 0.00 0.00 0.00 0.00 0.00 0.00 0.00 0.00 0.00 0.00 0.00 0.00 0.00 0.00 0.00 0.00 0.00 0.00 0.00 0.00 0.00 0.01 0.01 0.02 0.03 0.05 0.04 0.03 0.02 0.03 0.05 0.09
0.04 0.05 0.06 0.04 0.03 0.02 0.01 0.01 0.00 0.00 0.00 0.00 0.00 0.00 0.00 0.00 0.00 0.00 0.00 0.00 0.00 0.00 0.00 0.00 0.00 0.00 0.00 0.00 0.00 0.00 0.00 0.00 0.01 0.05 0.07 0.04 0.04 0.08 0.11 0.12 0.09 0.04 0.02 0.04
0.03 0.04 0.05 0.03 0.01 0.01 0.00 0.00 0.00 0.00 0.00 0.00 0.00 0.00 0.00 0.00 0.00 0.00 0.00 0.00 0.00 0.00 0.00 0.00 0.00 0.00 0.00 0.00 0.00 0.00 0.00 0.01 0.02 0.06 0.07 0.08 0.11 0.13 0.12 0.12 0.11 0.07 0.04 0.02
0.02 0.02 0.03 0.02 0.01 0.00 0.00 0.00 0.00 0.00 0.00 0.00 0.00 0.00 0.00 0.00 0.00 0.00 0.00 0.00 0.00 0.00 0.00 0.00 0.00 0.00 0.00 0.00 0.00 0.00 0.00 0.00 0.01 0.03 0.05 0.06 0.08 0.10 0.08 0.07 0.07 0.05 0.04 0.03
0.01 0.00 0.01 0.01 0.00 0.00 0.00 0.00 0.00 0.00 0.00 0.00 0.00 0.00 0.00 0.00 0.00 0.00 0.00 0.00 0.00 0.00 0.00 0.00 0.00 0.00 0.00 0.00 0.00 0.00 0.00 0.00 0.00 0.01 0.03 0.03 0.03 0.03 0.04 0.04 0.03 0.02 0.02 0.01
0.00 0.00 0.00 0.01 0.00 0.00 0.00 0.00 0.00 0.00 0.00 0.00 0.00 0.00 0.00 0.00 0.00 0.00 0.00 0.00 0.00 0.00 0.00 0.00 0.00 0.00 0.00 0.00 0.00 0.00 0.00 0.00 0.01 0.02 0.04 0.03 0.02 0.02 0.03 0.04 0.03 0.02 0.02 0.01
0.00 0.00 0.00 0.00 0.00 0.00 0.00 0.00 0.00 0.00 0.00 0.00 0.00 0.00 0.00 0.00 0.00 0.00 0.00 0.00 0.00 0.00 0.00 0.00 0.00 0.00 0.00 0.00 0.00 0.00 0.00 0.00 0.01 0.02 0.03 0.01 0.01 0.03 0.03 0.03 0.03 0.02 0.02 0.02
0.00 0.00 0.00 0.00 0.00 0.00 0.00 0.00 0.00 0.00 0.00 0.00 0.00 0.00 0.00 0.00 0.00 0.00 0.00 0.00 0.00 0.00 0.00 0.00 0.00 0.00 0.00 0.00 0.00 0.00 0.00 0.00 0.01 0.02 0.02 0.02 0.03 0.03 0.03 0.02 0.02 0.02 0.02 0.03
0.00 0.00 0.00 0.00 0.00 0.00 0.00 0.00 0.00 0.00 0.00 0.00 0.00 0.00 0.00 0.00 0.00 0.00 0.00 0.00 0.00 0.00 0.00 0.00 0.00 0.00 0.00 0.00 0.00 0.00 0.00 0.00 0.01 0.01 0.01 0.02 0.02 0.03 0.04 0.02 0.02 0.02 0.02 0.02
0.00 0.00 0.00 0.00 0.00 0.00 0.00 0.00 0.00 0.00 0.00 0.00 0.00 0.00 0.00 0.00 0.00 0.00 0.00 0.00 0.00 0.00 0.00 0.00 0.00 0.00 0.00 0.00 0.00 0.00 0.00 0.00 0.01 0.01 0.01 0.01 0.02 0.04 0.04 0.04 0.03 0.02 0.03 0.03
0.00 0.00 0.00 0.00 0.00 0.00 0.00 0.00 0.00 0.00 0.00 0.00 0.00 0.00 0.00 0.00 0.00 0.00 0.00 0.00 0.00 0.00 0.00 0.00 0.00 0.00 0.00 0.00 0.00 0.00 0.00 0.00 0.00 0.01 0.01 0.01 0.02 0.03 0.04 0.03 0.03 0.03 0.03 0.04
0.00 0.00 0.00 0.00 0.00 0.00 0.00 0.00 0.00 0.00 0.00 0.00 0.00 0.00 0.00 0.00 0.00 0.00 0.00 0.00 0.00 0.00 0.00 0.00 0.00 0.00 0.00 0.00 0.00 0.00 0.00 0.00 0.00 0.00 0.01 0.01 0.01 0.02 0.02 0.01 0.02 0.02 0.02 0.03
0.01 0.00 0.00 0.00 0.00 0.00 0.00 0.00 0.00 0.00 0.00 0.00 0.00 0.00 0.00 0.00 0.00 0.00 0.00 0.00 0.00 0.00 0.00 0.00 0.00 0.00 0.00 0.00 0.00 0.00 0.00 0.00 0.00 0.00 0.00 0.01 0.01 0.01 0.01 0.01 0.01 0.01 0.02 0.02
0.01 0.01 0.00 0.00 0.00 0.00 0.00 0.00 0.00 0.00 0.00 0.00 0.00 0.00 0.00 0.00 0.00 0.00 0.00 0.00 0.00 0.00 0.00 0.00 0.00 0.00 0.00 0.00 0.00 0.00 0.00 0.00 0.00 0.00 0.00 0.01 0.01 0.01 0.01 0.01 0.01 0.01 0.01 0.01
0.02 0.01 0.01 0.01 0.01 0.01 0.00 0.00 0.00 0.00 0.00 0.00 0.00 0.00 0.00 0.00 0.00 0.00 0.00 0.00 0.00 0.00 0.00 0.00 0.00 0.00 0.00 0.00 0.00 0.00 0.00 0.00 0.00 0.00 0.00 0.00 0.01 0.01 0.01 0.01 0.01 0.00 0.00 0.00

GEFSNGP_prec_meanprecacc_078.txt.gz
Total_Precipitation_Accumulation
0.18 0.19 0.25 0.32 0.34 0.43 0.56 0.74 0.97 0.87 0.67 0.55 0.52 0.48 0.50 0.55 0.49 0.43 0.39 0.37 0.35 0.32 0.32 0.34 0.37 0.45 0.52 0.65 0.81 0.93 0.97 0.92 0.85 0.79 0.68 0.59 0.54 0.45 0.43 0.40 0.39 0.44 0.57 0.71
0.07 0.10 0.16 0.28 0.41 0.54 0.60 0.67 0.69 0.60 0.56 0.42 0.36 0.32 0.32 0.37 0.37 0.36 0.31 0.27 0.24 0.24 0.21 0.23 0.29 0.36 0.36 0.48 0.63 0.74 0.79 0.80 0.81 0.77 0.61 0.53 0.45 0.38 0.34 0.33 0.33 0.36 0.43 0.55
0.07 0.09 0.17 0.40 0.53 0.60 0.59 0.54 0.45 0.42 0.37 0.26 0.24 0.17 0.16 0.21 0.25 0.30 0.28 0.23 0.21 0.20 0.21 0.23 0.30 0.31 0.32 0.41 0.52 0.57 0.61 0.64 0.66 0.61 0.48 0.43 0.34 0.29 0.30 0.30 0.32 0.35 0.40 0.50
0.12 0.13 0.34 0.61 0.51 0.45 0.48 0.37 0.22 0.20 0.20 0.19 0.15 0.11 0.08 0.08 0.11 0.13 0.16 0.16 0.21 0.18 0.17 0.19 0.24 0.29 0.37 0.40 0.41 0.41 0.45 0.49 0.47 0.47 0.42 0.35 0.27 0.27 0.28 0.29 0.33 0.35 0.38 0.43
0.22 0.23 0.42 0.57 0.38 0.34 0.39 0.33 0.16 0.11 0.11 0.09 0.07 0.05 0.03 0.02 0.05 0.06 0.06 0.07 0.10 0.09 0.09 0.10 0.10 0.11 0.14 0.17 0.19 0.23 0.30 0.36 0.40 0.40 0.36 0.31 0.26 0.32 0.38 0.36 0.35 0.35 0.35 0.36
0.31 0.37 0.50 0.39 0.15 0.15 0.27 0.38 0.13 0.06 0.05 0.04 0.03 0.04 0.02 0.02 0.04 0.03 0.02 0.02 0.03 0.03 0.03 0.03 0.02 0.02 0.03 0.05 0.09 0.13 0.19 0.24 0.28 0.31 0.34 0.38 0.46 0.54 0.55 0.50 0.42 0.38 0.36 0.35
0.39 0.56 0.57 0.33 0.13 0.15 0.28 0.40 0.18 0.05 0.02 0.01 0.01 0.01 0.00 0.02 0.03 0.02 0.01 0.00 0.00 0.01 0.01 0.00 0.00 0.00 0.00 0.01 0.02 0.02 0.04 0.10 0.18 0.29 0.35 0.44 0.56 0.59 0.57 0.52 0.42 0.37 0.35 0.33
0.50 0.66 0.74 0.38 0.19 0.21 0.19 0.13 0.10 0.04 0.01 0.01 0.00 0.00 0.00 0.01 0.01 0.01 0.01 0.00 0.00 0.00 0.00 0.00 0.00 0.00 0.00 0.00 0.00 0.01 0.03 0.07 0.13 0.20 0.29 0.42 0.51 0.50 0.50 0.48 0.45 0.41 0.40 0.38
0.50 0.56 0.47 0.28 0.16 0.11 0.08 0.08 0.03 0.01 0.01 0.00 0.00 0.00 0.00 0.01 0.01 0.01 0.01 0.00 0.00 0.00 0.00 0.00 0.00 0.00 0.00 0.00 0.00 0.00 0.01 0.02 0.06 0.11 0.22 0.36 0.39 0.39 0.42 0.45 0.44 0.43 0.41 0.38
0.20 0.15 0.14 0.11 0.08 0.04 0.03 0.04 0.01 0.00 0.00 0.00 0.00 0.00 0.00 0.00 0.01 0.00 0.00 0.00 0.00 0.00 0.00 0.00 0.00 0.00 0.00 0.00 0.00 0.00 0.00 0.00 0.01 0.02 0.05 0.10 0.15 0.20 0.26 0.31 0.33 0.32 0.35 0.39
0.20 0.10 0.05 0.04 0.04 0.02 0.02 0.02 0.01 0.00 0.00 0.00 0.00 0.00 0.00 0.00 0.00 0.00 0.00 0.00 0.00 0.00 0.00 0.00 0.00 0.00 0.00 0.00 0.00 0.00 0.00 0.00 0.01 0.02 0.03 0.04 0.06 0.09 0.12 0.15 0.19 0.25 0.30 0.34
0.20 0.12 0.06 0.04 0.03 0.02 0.02 0.01 0.01 0.00 0.00 0.00 0.00 0.00 0.00 0.00 0.00 0.00 0.00 0.00 0.00 0.00 0.00 0.00 0.00 0.00 0.00 0.00 0.00 0.00 0.00 0.00 0.00 0.01 0.01 0.01 0.02 0.03 0.04 0.06 0.09 0.12 0.15 0.18
0.08 0.07 0.05 0.05 0.05 0.03 0.02 0.01 0.00 0.01 0.00 0.00 0.00 0.00 0.00 0.00 0.00 0.00 0.00 0.00 0.00 0.00 0.00 0.00 0.00 0.00 0.00 0.00 0.00 0.00 0.00 0.00 0.00 0.01 0.01 0.02 0.03 0.05 0.04 0.03 0.02 0.03 0.05 0.09
0.04 0.05 0.06 0.04 0.03 0.02 0.01 0.01 0.00 0.00 0.00 0.00 0.00 0.00 0.00 0.00 0.00 0.00 0.00 0.00 0.00 0.00 0.00 0.00 0.00 0.00 0.00 0.00 0.00 0.00 0.00 0.00 0.01 0.05 0.07 0.04 0.04 0.08 0.11 0.12 0.09 0.04 0.02 0.04
0.03 0.04 0.05 0.03 0.01 0.01 0.00 0.00 0.00 0.00 0.00 0.00 0.00 0.00 0.00 0.00 0.00 0.00 0.00 0.00 0.00 0.00 0.00 0.00 0.00 0.00 0.00 0.00 0.00 0.00 0.00 0.01 0.02 0.06 0.07 0.08 0.11 0.13 0.12 0.12 0.11 0.07 0.04 0.02
0.02 0.02 0.03 0.02 0.01 0.00 0.00 0.00 0.00 0.00 0.00 0.00 0.00 0.00 0.00 0.00 0.00 0.00 0.00 0.00 0.00 0.00 0.00 0.00 0.00 0.00 0.00 0.00 0.00 0.00 0.00 0.00 0.01 0.03 0.05 0.06 0.08 0.10 0.08 0.07 0.07 0.05 0.04 0.03
0.01 0.00 0.01 0.01 0.00 0.00 0.00 0.00 0.00 0.00 0.00 0.00 0.00 0.00 0.00 0.00 0.00 0.00 0.00 0.00 0.00 0.00 0.00 0.00 0.00 0.00 0.00 0.00 0.00 0.00 0.00 0.00 0.00 0.01 0.03 0.03 0.03 0.03 0.04 0.04 0.03 0.02 0.02 0.01
0.00 0.00 0.00 0.01 0.00 0.00 0.00 0.00 0.00 0.00 0.00 0.00 0.00 0.00 0.00 0.00 0.00 0.00 0.00 0.00 0.00 0.00 0.00 0.00 0.00 0.00 0.00 0.00 0.00 0.00 0.00 0.00 0.01 0.02 0.04 0.03 0.02 0.02 0.03 0.04 0.03 0.02 0.02 0.01
0.00 0.00 0.00 0.00 0.00 0.00 0.00 0.00 0.00 0.00 0.00 0.00 0.00 0.00 0.00 0.00 0.00 0.00 0.00 0.00 0.00 0.00 0.00 0.00 0.00 0.00 0.00 0.00 0.00 0.00 0.00 0.00 0.01 0.02 0.03 0.01 0.01 0.03 0.03 0.03 0.03 0.02 0.02 0.02
0.00 0.00 0.00 0.00 0.00 0.00 0.00 0.00 0.00 0.00 0.00 0.00 0.00 0.00 0.00 0.00 0.00 0.00 0.00 0.00 0.00 0.00 0.00 0.00 0.00 0.00 0.00 0.00 0.00 0.00 0.00 0.00 0.01 0.02 0.02 0.02 0.03 0.03 0.03 0.02 0.02 0.02 0.02 0.03
0.00 0.00 0.00 0.00 0.00 0.00 0.00 0.00 0.00 0.00 0.00 0.00 0.00 0.00 0.00 0.00 0.00 0.00 0.00 0.00 0.00 0.00 0.00 0.00 0.00 0.00 0.00 0.00 0.00 0.00 0.00 0.00 0.01 0.01 0.01 0.02 0.02 0.03 0.04 0.02 0.02 0.02 0.02 0.02
0.00 0.00 0.00 0.00 0.00 0.00 0.00 0.00 0.00 0.00 0.00 0.00 0.00 0.00 0.00 0.00 0.00 0.00 0.00 0.00 0.00 0.00 0.00 0.00 0.00 0.00 0.00 0.00 0.00 0.00 0.00 0.00 0.01 0.01 0.01 0.01 0.02 0.04 0.04 0.04 0.03 0.02 0.03 0.03
0.00 0.00 0.00 0.00 0.00 0.00 0.00 0.00 0.00 0.00 0.00 0.00 0.00 0.00 0.00 0.00 0.00 0.00 0.00 0.00 0.00 0.00 0.00 0.00 0.00 0.00 0.00 0.00 0.00 0.00 0.00 0.00 0.00 0.01 0.01 0.01 0.02 0.03 0.04 0.03 0.03 0.03 0.03 0.04
0.00 0.00 0.00 0.00 0.00 0.00 0.00 0.00 0.00 0.00 0.00 0.00 0.00 0.00 0.00 0.00 0.00 0.00 0.00 0.00 0.00 0.00 0.00 0.00 0.00 0.00 0.00 0.00 0.00 0.00 0.00 0.00 0.00 0.00 0.01 0.01 0.01 0.02 0.02 0.01 0.02 0.02 0.02 0.03
0.01 0.00 0.00 0.00 0.00 0.00 0.00 0.00 0.00 0.00 0.00 0.00 0.00 0.00 0.00 0.00 0.00 0.00 0.00 0.00 0.00 0.00 0.00 0.00 0.00 0.00 0.00 0.00 0.00 0.00 0.00 0.00 0.00 0.00 0.00 0.01 0.01 0.01 0.01 0.01 0.01 0.01 0.02 0.02
0.01 0.01 0.00 0.00 0.00 0.00 0.00 0.00 0.00 0.00 0.00 0.00 0.00 0.00 0.00 0.00 0.00 0.00 0.00 0.00 0.00 0.00 0.00 0.00 0.00 0.00 0.00 0.00 0.00 0.00 0.00 0.00 0.00 0.00 0.00 0.01 0.01 0.01 0.01 0.01 0.01 0.01 0.01 0.01
0.02 0.01 0.01 0.01 0.01 0.01 0.00 0.00 0.00 0.00 0.00 0.00 0.00 0.00 0.00 0.00 0.00 0.00 0.00 0.00 0.00 0.00 0.00 0.00 0.00 0.00 0.00 0.00 0.00 0.00 0.00 0.00 0.00 0.00 0.00 0.00 0.01 0.01 0.01 0.01 0.01 0.00 0.00 0.00

GEFSNGP_prec_meanprecacc_084.txt.gz
Total_Precipitation_Accumulation
0.18 0.19 0.25 0.32 0.34 0.43 0.56 0.74 0.97 0.87 0.67 0.55 0.52 0.48 0.50 0.55 0.49 0.43 0.39 0.37 0.35 0.32 0.32 0.34 0.37 0.45 0.52 0.65 0.81 0.93 0.97 0.92 0.85 0.79 0.68 0.60 0.55 0.46 0.46 0.43 0.41 0.46 0.62 0.75
0.07 0.10 0.16 0.28 0.41 0.54 0.60 0.67 0.69 0.60 0.56 0.42 0.36 0.32 0.32 0.37 0.37 0.36 0.31 0.27 0.24 0.24 0.21 0.23 0.29 0.36 0.36 0.48 0.63 0.74 0.79 0.80 0.81 0.77 0.61 0.53 0.46 0.39 0.36 0.36 0.36 0.40 0.46 0.58
0.07 0.09 0.17 0.40 0.53 0.60 0.59 0.54 0.45 0.42 0.37 0.26 0.24 0.17 0.16 0.21 0.25 0.30 0.28 0.23 0.21 0.20 0.21 0.23 0.30 0.31 0.32 0.41 0.52 0.57 0.61 0.64 0.66 0.61 0.48 0.43 0.34 0.30 0.32 0.32 0.34 0.37 0.41 0.52
0.12 0.13 0.34 0.61 0.51 0.45 0.48 0.37 0.22 0.20 0.20 0.19 0.15 0.11 0.08 0.08 0.11 0.13 0.16 0.16 0.21 0.18 0.17 0.19 0.24 0.29 0.37 0.40 0.41 0.41 0.45 0.49 0.47 0.47 0.42 0.35 0.27 0.27 0.28 0.30 0.34 0.36 0.39 0.44
0.22 0.23 0.42 0.57 0.38 0.34 0.39 0.33 0.16 0.11 0.11 0.09 0.07 0.05 0.03 0.02 0.05 0.06 0.06 0.07 0.10 0.09 0.09 0.10 0.10 0.11 0.14 0.17 0.19 0.23 0.30 0.36 0.40 0.40 0.37 0.31 0.26 0.33 0.39 0.37 0.36 0.35 0.35 0.38
0.31 0.37 0.50 0.39 0.15 0.15 0.27 0.38 0.13 0.06 0.05 0.04 0.03 0.04 0.02 0.02 0.04 0.03 0.02 0.02 0.03 0.03 0.03 0.03 0.02 0.02 0.03 0.05 0.09 0.13 0.19 0.24 0.28 0.31 0.34 0.38 0.46 0.54 0.55 0.51 0.42 0.38 0.37 0.35
0.39 0.56 0.57 0.33 0.13 0.15 0.28 0.40 0.18 0.05 0.02 0.01 0.01 0.01 0.00 0.02 0.03 0.02 0.01 0.00 0.00 0.01 0.01 0.00 0.00 0.00 0.00 0.01 0.02 0.02 0.04 0.10 0.18 0.29 0.35 0.44 0.56 0.59 0.57 0.52 0.42 0.37 0.35 0.34
0.50 0.66 0.74 0.38 0.19 0.21 0.19 0.13 0.10 0.04 0.01 0.01 0.00 0.00 0.00 0.01 0.01 0.01 0.01 0.00 0.00 0.00 0.00 0.00 0.00 0.00 0.00 0.00 0.00 0.01 0.03 0.07 0.13 0.20 0.29 0.42 0.51 0.50 0.50 0.48 0.45 0.41 0.40 0.38
0.50 0.56 0.47 0.28 0.16 0.11 0.08 0.08 0.03 0.01 0.01 0.00 0.00 0.00 0.00 0.01 0.01 0.01 0.01 0.00 0.00 0.00 0.00 0.00 0.00 0.00 0.00 0.00 0.00 0.00 0.01 0.02 0.06 0.11 0.22 0.36 0.39 0.39 0.42 0.45 0.44 0.43 0.41 0.39
0.20 0.15 0.14 0.11 0.08 0.04 0.03 0.04 0.01 0.00 0.00 0.00 0.00 0.00 0.00 0.00 0.01 0.00 0.00 0.00 0.00 0.00 0.00 0.00 0.00 0.00 0.00 0.00 0.00 0.00 0.00 0.00 0.01 0.02 0.05 0.10 0.15 0.20 0.26 0.31 0.33 0.32 0.35 0.39
0.20 0.10 0.05 0.04 0.04 0.02 0.02 0.02 0.01 0.00 0.00 0.00 0.00 0.00 0.00 0.00 0.00 0.00 0.00 0.00 0.00 0.00 0.00 0.00 0.00 0.00 0.00 0.00 0.00 0.00 0.00 0.00 0.01 0.02 0.03 0.04 0.06 0.09 0.12 0.15 0.19 0.25 0.30 0.34
0.20 0.12 0.06 0.04 0.03 0.02 0.02 0.01 0.01 0.00 0.00 0.00 0.00 0.00 0.00 0.00 0.00 0.00 0.00 0.00 0.00 0.00 0.00 0.00 0.00 0.00 0.00 0.00 0.00 0.00 0.00 0.00 0.00 0.01 0.01 0.01 0.02 0.03 0.04 0.06 0.09 0.12 0.15 0.18
0.08 0.07 0.05 0.05 0.05 0.03 0.02 0.01 0.00 0.01 0.00 0.00 0.00 0.00 0.00 0.00 0.00 0.00 0.00 0.00 0.00 0.00 0.00 0.00 0.00 0.00 0.00 0.00 0.00 0.00 0.00 0.00 0.00 0.01 0.01 0.02 0.03 0.05 0.04 0.03 0.02 0.03 0.05 0.09
0.04 0.05 0.06 0.04 0.03 0.02 0.01 0.01 0.00 0.00 0.00 0.00 0.00 0.00 0.00 0.00 0.00 0.00 0.00 0.00 0.00 0.00 0.00 0.00 0.00 0.00 0.00 0.00 0.00 0.00 0.00 0.00 0.01 0.05 0.07 0.04 0.04 0.08 0.11 0.12 0.09 0.04 0.02 0.04
0.03 0.04 0.05 0.03 0.01 0.01 0.00 0.00 0.00 0.00 0.00 0.00 0.00 0.00 0.00 0.00 0.00 0.00 0.00 0.00 0.00 0.00 0.00 0.00 0.00 0.00 0.00 0.00 0.00 0.00 0.00 0.01 0.02 0.06 0.07 0.08 0.11 0.13 0.12 0.12 0.11 0.07 0.04 0.02
0.02 0.02 0.03 0.02 0.01 0.00 0.00 0.00 0.00 0.00 0.00 0.00 0.00 0.00 0.00 0.00 0.00 0.00 0.00 0.00 0.00 0.00 0.00 0.00 0.00 0.00 0.00 0.00 0.00 0.00 0.00 0.00 0.01 0.03 0.05 0.06 0.08 0.10 0.08 0.07 0.07 0.05 0.04 0.03
0.01 0.00 0.01 0.01 0.00 0.00 0.00 0.00 0.00 0.00 0.00 0.00 0.00 0.00 0.00 0.00 0.00 0.00 0.00 0.00 0.00 0.00 0.00 0.00 0.00 0.00 0.00 0.00 0.00 0.00 0.00 0.00 0.00 0.01 0.03 0.03 0.03 0.03 0.04 0.04 0.03 0.02 0.02 0.01
0.00 0.00 0.00 0.01 0.00 0.00 0.00 0.00 0.00 0.00 0.00 0.00 0.00 0.00 0.00 0.00 0.00 0.00 0.00 0.00 0.00 0.00 0.00 0.00 0.00 0.00 0.00 0.00 0.00 0.00 0.00 0.00 0.01 0.02 0.04 0.03 0.02 0.02 0.03 0.04 0.03 0.02 0.02 0.01
0.00 0.00 0.00 0.00 0.00 0.00 0.00 0.00 0.00 0.00 0.00 0.00 0.00 0.00 0.00 0.00 0.00 0.00 0.00 0.00 0.00 0.00 0.00 0.00 0.00 0.00 0.00 0.00 0.00 0.00 0.00 0.00 0.01 0.02 0.03 0.01 0.01 0.03 0.03 0.03 0.03 0.02 0.02 0.02
0.00 0.00 0.00 0.00 0.00 0.00 0.00 0.00 0.00 0.00 0.00 0.00 0.00 0.00 0.00 0.00 0.00 0.00 0.00 0.00 0.00 0.00 0.00 0.00 0.00 0.00 0.00 0.00 0.00 0.00 0.00 0.00 0.01 0.02 0.02 0.02 0.03 0.03 0.03 0.02 0.02 0.02 0.02 0.03
0.00 0.00 0.00 0.00 0.00 0.00 0.00 0.00 0.00 0.00 0.00 0.00 0.00 0.00 0.00 0.00 0.00 0.00 0.00 0.00 0.00 0.00 0.00 0.00 0.00 0.00 0.00 0.00 0.00 0.00 0.00 0.00 0.01 0.01 0.01 0.02 0.02 0.03 0.04 0.02 0.02 0.02 0.02 0.02
0.00 0.00 0.00 0.00 0.00 0.00 0.00 0.00 0.00 0.00 0.00 0.00 0.00 0.00 0.00 0.00 0.00 0.00 0.00 0.00 0.00 0.00 0.00 0.00 0.00 0.00 0.00 0.00 0.00 0.00 0.00 0.00 0.01 0.01 0.01 0.01 0.02 0.04 0.04 0.04 0.03 0.02 0.03 0.03
0.00 0.00 0.00 0.00 0.00 0.00 0.00 0.00 0.00 0.00 0.00 0.00 0.00 0.00 0.00 0.00 0.00 0.00 0.00 0.00 0.00 0.00 0.00 0.00 0.00 0.00 0.00 0.00 0.00 0.00 0.00 0.00 0.00 0.01 0.01 0.01 0.02 0.03 0.04 0.03 0.03 0.03 0.03 0.04
0.00 0.00 0.00 0.00 0.00 0.00 0.00 0.00 0.00 0.00 0.00 0.00 0.00 0.00 0.00 0.00 0.00 0.00 0.00 0.00 0.00 0.00 0.00 0.00 0.00 0.00 0.00 0.00 0.00 0.00 0.00 0.00 0.00 0.00 0.01 0.01 0.01 0.02 0.02 0.01 0.02 0.02 0.02 0.03
0.01 0.00 0.00 0.00 0.00 0.00 0.00 0.00 0.00 0.00 0.00 0.00 0.00 0.00 0.00 0.00 0.00 0.00 0.00 0.00 0.00 0.00 0.00 0.00 0.00 0.00 0.00 0.00 0.00 0.00 0.00 0.00 0.00 0.00 0.00 0.01 0.01 0.01 0.01 0.01 0.01 0.01 0.02 0.02
0.01 0.01 0.00 0.00 0.00 0.00 0.00 0.00 0.00 0.00 0.00 0.00 0.00 0.00 0.00 0.00 0.00 0.00 0.00 0.00 0.00 0.00 0.00 0.00 0.00 0.00 0.00 0.00 0.00 0.00 0.00 0.01 0.01 0.01 0.01 0.01 0.01 0.01 0.01 0.01 0.01 0.01 0.01 0.01
0.02 0.01 0.01 0.01 0.01 0.01 0.00 0.00 0.00 0.00 0.00 0.00 0.00 0.00 0.00 0.00 0.00 0.00 0.00 0.00 0.00 0.00 0.00 0.00 0.00 0.00 0.00 0.00 0.01 0.01 0.01 0.01 0.01 0.01 0.01 0.01 0.02 0.02 0.02 0.01 0.01 0.01 0.01 0.01